Time,TemperatureF,DewpointF,PressureIn,WindDirection,WindDirectionDegrees,WindSpeedMPH,WindSpeedGustMPH,Humidity,HourlyPrecipIn,Conditions,Clouds,dailyrainin,SolarRadiationWatts/m^2,SoftwareType,DateUTC
2013-05-18 00:03:00,65.8,27.0,29.71,SE,142,1.0,4.0,23,0.00,,,0.00,0,weatherlink.com 1.10,2013-05-18 07:03:00,
2013-05-18 00:18:00,65.2,26.0,29.71,SSE,148,0.0,2.0,23,0.00,,,0.00,0,weatherlink.com 1.10,2013-05-18 07:18:00,
2013-05-18 00:33:00,65.1,27.0,29.71,SW,214,4.0,6.0,24,0.00,,,0.00,0,weatherlink.com 1.10,2013-05-18 07:33:00,
2013-05-18 00:48:00,65.3,28.0,29.71,South,188,0.0,6.0,25,0.00,,,0.00,0,weatherlink.com 1.10,2013-05-18 07:48:00,
2013-05-18 01:03:00,65.0,29.0,29.71,SSW,211,0.0,7.0,26,0.00,,,0.00,0,weatherlink.com 1.10,2013-05-18 08:03:00,
2013-05-18 01:18:00,64.5,31.0,29.70,SSW,212,7.0,10.0,28,0.00,,,0.00,0,weatherlink.com 1.10,2013-05-18 08:18:00,
2013-05-18 01:34:00,64.4,30.0,29.70,South,177,0.0,3.0,28,0.00,,,0.00,0,weatherlink.com 1.10,2013-05-18 08:34:00,
2013-05-18 01:49:00,64.1,30.0,29.70,SSE,164,0.0,4.0,28,0.00,,,0.00,0,weatherlink.com 1.10,2013-05-18 08:49:00,
2013-05-18 02:03:00,63.6,31.0,29.69,SSE,157,1.0,3.0,29,0.00,,,0.00,0,weatherlink.com 1.10,2013-05-18 09:03:00,
2013-05-18 02:18:00,62.8,31.0,29.69,SSE,153,0.0,3.0,30,0.00,,,0.00,0,weatherlink.com 1.10,2013-05-18 09:18:00,
2013-05-18 02:33:00,62.0,31.0,29.69,SSE,153,0.0,2.0,31,0.00,,,0.00,0,weatherlink.com 1.10,2013-05-18 09:33:00,
2013-05-18 02:48:00,61.6,31.0,29.69,South,178,0.0,5.0,32,0.00,,,0.00,0,weatherlink.com 1.10,2013-05-18 09:48:00,
2013-05-18 03:03:00,61.1,31.0,29.68,South,178,0.0,1.0,32,0.00,,,0.00,0,weatherlink.com 1.10,2013-05-18 10:03:00,
2013-05-18 03:19:00,60.1,31.0,29.68,South,178,0.0,0.0,33,0.00,,,0.00,0,weatherlink.com 1.10,2013-05-18 10:19:00,
2013-05-18 03:34:00,58.2,31.0,29.68,South,178,0.0,1.0,36,0.00,,,0.00,0,weatherlink.com 1.10,2013-05-18 10:34:00,
2013-05-18 03:49:00,57.6,32.0,29.68,South,178,1.0,2.0,38,0.00,,,0.00,0,weatherlink.com 1.10,2013-05-18 10:49:00,
2013-05-18 04:04:00,57.5,33.0,29.68,South,178,1.0,1.0,39,0.00,,,0.00,0,weatherlink.com 1.10,2013-05-18 11:04:00,
2013-05-18 04:19:00,57.6,32.0,29.68,South,178,1.0,1.0,38,0.00,,,0.00,0,weatherlink.com 1.10,2013-05-18 11:19:00,
2013-05-18 04:34:00,56.9,32.0,29.69,SSE,153,0.0,3.0,39,0.00,,,0.00,0,weatherlink.com 1.10,2013-05-18 11:34:00,
2013-05-18 04:48:00,57.4,32.0,29.69,SSE,153,0.0,1.0,38,0.00,,,0.00,0,weatherlink.com 1.10,2013-05-18 11:48:00,
2013-05-18 05:03:00,55.8,31.0,29.68,SSE,153,1.0,2.0,39,0.00,,,0.00,0,weatherlink.com 1.10,2013-05-18 12:03:00,
2013-05-18 05:19:00,55.0,31.0,29.69,SSE,150,0.0,3.0,40,0.00,,,0.00,0,weatherlink.com 1.10,2013-05-18 12:19:00,
2013-05-18 05:34:00,54.2,31.0,29.69,SSE,150,0.0,1.0,41,0.00,,,0.00,11,weatherlink.com 1.10,2013-05-18 12:34:00,
2013-05-18 05:49:00,53.7,31.0,29.70,SSE,150,0.0,1.0,42,0.00,,,0.00,19,weatherlink.com 1.10,2013-05-18 12:49:00,
2013-05-18 06:04:00,53.4,31.0,29.71,SSE,150,0.0,1.0,43,0.00,,,0.00,60,weatherlink.com 1.10,2013-05-18 13:04:00,
2013-05-18 06:19:00,55.3,32.0,29.71,SSE,150,0.0,0.0,42,0.00,,,0.00,33,weatherlink.com 1.10,2013-05-18 13:19:00,
2013-05-18 06:34:00,56.9,33.0,29.72,SSE,150,1.0,3.0,41,0.00,,,0.00,169,weatherlink.com 1.10,2013-05-18 13:34:00,
2013-05-18 06:49:00,59.8,33.0,29.72,SSE,155,0.0,4.0,37,0.00,,,0.00,225,weatherlink.com 1.10,2013-05-18 13:49:00,
2013-05-18 07:04:00,63.0,35.0,29.72,SSE,155,0.0,3.0,35,0.00,,,0.00,281,weatherlink.com 1.10,2013-05-18 14:04:00,
2013-05-18 07:19:00,65.1,34.0,29.72,SSE,150,1.0,5.0,31,0.00,,,0.00,338,weatherlink.com 1.10,2013-05-18 14:19:00,
2013-05-18 07:34:00,66.5,33.0,29.73,SSW,204,5.0,8.0,29,0.00,,,0.00,392,weatherlink.com 1.10,2013-05-18 14:34:00,
2013-05-18 07:50:00,67.7,31.0,29.73,SSW,205,2.0,7.0,25,0.00,,,0.00,446,weatherlink.com 1.10,2013-05-18 14:50:00,
2013-05-18 08:05:00,68.3,29.0,29.73,SW,231,7.0,9.0,23,0.00,,,0.00,494,weatherlink.com 1.10,2013-05-18 15:05:00,
2013-05-18 08:20:00,68.9,28.0,29.74,South,176,1.0,13.0,22,0.00,,,0.00,548,weatherlink.com 1.10,2013-05-18 15:20:00,
2013-05-18 08:35:00,70.2,26.0,29.74,South,175,1.0,11.0,19,0.00,,,0.00,596,weatherlink.com 1.10,2013-05-18 15:35:00,
2013-05-18 08:50:00,71.5,23.0,29.73,SW,216,9.0,11.0,16,0.00,,,0.00,647,weatherlink.com 1.10,2013-05-18 15:50:00,
2013-05-18 09:05:00,72.2,25.0,29.73,SSE,150,1.0,14.0,17,0.00,,,0.00,693,weatherlink.com 1.10,2013-05-18 16:05:00,
2013-05-18 09:20:00,73.0,23.0,29.73,SSE,157,3.0,14.0,15,0.00,,,0.00,735,weatherlink.com 1.10,2013-05-18 16:20:00,
2013-05-18 09:35:00,74.1,22.0,29.72,SSW,194,3.0,10.0,14,0.00,,,0.00,770,weatherlink.com 1.10,2013-05-18 16:35:00,
2013-05-18 09:50:00,74.8,21.0,29.72,SSW,200,13.0,15.0,13,0.00,,,0.00,814,weatherlink.com 1.10,2013-05-18 16:50:00,
2013-05-18 10:04:00,75.4,21.0,29.71,SW,233,8.0,11.0,13,0.00,,,0.00,838,weatherlink.com 1.10,2013-05-18 17:04:00,
2013-05-18 10:20:00,75.4,23.0,29.71,South,189,7.0,15.0,14,0.00,,,0.00,875,weatherlink.com 1.10,2013-05-18 17:20:00,
2013-05-18 10:35:00,76.0,20.0,29.71,South,184,7.0,16.0,12,0.00,,,0.00,904,weatherlink.com 1.10,2013-05-18 17:35:00,
2013-05-18 10:50:00,76.0,18.0,29.71,SW,216,4.0,17.0,11,0.00,,,0.00,925,weatherlink.com 1.10,2013-05-18 17:50:00,
2013-05-18 11:07:00,77.2,19.0,29.71,SSW,198,1.0,14.0,11,0.00,,,0.00,949,weatherlink.com 1.10,2013-05-18 18:07:00,
2013-05-18 11:22:00,77.5,14.0,29.71,SSW,212,6.0,19.0,9,0.00,,,0.00,970,weatherlink.com 1.10,2013-05-18 18:22:00,
2013-05-18 11:36:00,79.1,13.0,29.70,SW,216,9.0,19.0,8,0.00,,,0.00,984,weatherlink.com 1.10,2013-05-18 18:36:00,
2013-05-18 11:50:00,79.4,7.0,29.70,SSW,212,10.0,23.0,6,0.00,,,0.00,990,weatherlink.com 1.10,2013-05-18 18:50:00,
2013-05-18 12:06:00,79.0,6.0,29.70,South,181,11.0,20.0,6,0.00,,,0.00,998,weatherlink.com 1.10,2013-05-18 19:06:00,
2013-05-18 12:20:00,79.0,10.0,29.69,East,91,2.0,22.0,7,0.00,,,0.00,995,weatherlink.com 1.10,2013-05-18 19:20:00,
2013-05-18 12:35:00,80.4,11.0,29.69,SSW,210,16.0,18.0,7,0.00,,,0.00,991,weatherlink.com 1.10,2013-05-18 19:35:00,
2013-05-18 12:50:00,79.8,10.0,29.68,SSE,158,7.0,21.0,7,0.00,,,0.00,984,weatherlink.com 1.10,2013-05-18 19:50:00,
2013-05-18 13:05:00,80.5,17.0,29.68,SSW,201,11.0,21.0,9,0.00,,,0.00,972,weatherlink.com 1.10,2013-05-18 20:05:00,
2013-05-18 13:20:00,80.5,14.0,29.68,SW,221,5.0,18.0,8,0.00,,,0.00,960,weatherlink.com 1.10,2013-05-18 20:20:00,
2013-05-18 13:35:00,80.8,17.0,29.67,West,274,4.0,22.0,9,0.00,,,0.00,942,weatherlink.com 1.10,2013-05-18 20:35:00,
2013-05-18 13:50:00,82.2,15.0,29.67,WSW,243,6.0,17.0,8,0.00,,,0.00,925,weatherlink.com 1.10,2013-05-18 20:50:00,
2013-05-18 14:05:00,83.0,18.0,29.66,SSW,207,15.0,16.0,9,0.00,,,0.00,900,weatherlink.com 1.10,2013-05-18 21:05:00,
2013-05-18 14:20:00,82.4,18.0,29.66,WSW,238,15.0,22.0,9,0.00,,,0.00,872,weatherlink.com 1.10,2013-05-18 21:20:00,
2013-05-18 14:35:00,82.2,15.0,29.66,SSW,196,16.0,18.0,8,0.00,,,0.00,833,weatherlink.com 1.10,2013-05-18 21:35:00,
2013-05-18 14:50:00,81.8,20.0,29.66,West,277,10.0,25.0,10,0.00,,,0.00,802,weatherlink.com 1.10,2013-05-18 21:50:00,
2013-05-18 15:05:00,81.9,20.0,29.65,SW,234,15.0,22.0,10,0.00,,,0.00,763,weatherlink.com 1.10,2013-05-18 22:05:00,
2013-05-18 15:20:00,81.6,20.0,29.65,SW,220,12.0,18.0,10,0.00,,,0.00,724,weatherlink.com 1.10,2013-05-18 22:20:00,
2013-05-18 15:35:00,81.9,22.0,29.64,West,262,12.0,22.0,11,0.00,,,0.00,682,weatherlink.com 1.10,2013-05-18 22:35:00,
2013-05-18 15:50:00,81.7,24.0,29.64,WNW,293,6.0,16.0,12,0.00,,,0.00,633,weatherlink.com 1.10,2013-05-18 22:50:00,
2013-05-18 16:05:00,81.9,24.0,29.64,SSW,201,15.0,23.0,12,0.00,,,0.00,589,weatherlink.com 1.10,2013-05-18 23:05:00,
2013-05-18 16:20:00,81.1,26.0,29.64,WSW,245,17.0,17.0,13,0.00,,,0.00,540,weatherlink.com 1.10,2013-05-18 23:20:00,
2013-05-18 16:51:00,80.6,25.0,29.64,SW,230,4.0,15.0,13,0.00,,,0.00,434,weatherlink.com 1.10,2013-05-18 23:51:00,
2013-05-18 17:06:00,80.0,25.0,29.64,WSW,255,9.0,17.0,13,0.00,,,0.00,380,weatherlink.com 1.10,2013-05-19 00:06:00,
2013-05-18 17:21:00,80.0,25.0,29.64,WSW,241,14.0,17.0,13,0.00,,,0.00,329,weatherlink.com 1.10,2013-05-19 00:21:00,
2013-05-18 17:36:00,79.4,22.0,29.64,SW,229,16.0,21.0,12,0.00,,,0.00,274,weatherlink.com 1.10,2013-05-19 00:36:00,
2013-05-18 17:51:00,78.8,22.0,29.64,SW,231,6.0,19.0,12,0.00,,,0.00,218,weatherlink.com 1.10,2013-05-19 00:51:00,
2013-05-18 18:06:00,78.1,21.0,29.64,SSW,205,6.0,19.0,12,0.00,,,0.00,155,weatherlink.com 1.10,2013-05-19 01:06:00,
2013-05-18 18:21:00,77.5,23.0,29.65,SSW,213,8.0,16.0,13,0.00,,,0.00,100,weatherlink.com 1.10,2013-05-19 01:21:00,
2013-05-18 18:36:00,76.8,22.0,29.65,WSW,241,12.0,12.0,13,0.00,,,0.00,51,weatherlink.com 1.10,2013-05-19 01:36:00,
2013-05-18 18:51:00,75.9,22.0,29.65,WSW,257,5.0,14.0,13,0.00,,,0.00,21,weatherlink.com 1.10,2013-05-19 01:51:00,
2013-05-18 19:06:00,74.7,21.0,29.66,WSW,246,8.0,11.0,13,0.00,,,0.00,9,weatherlink.com 1.10,2013-05-19 02:06:00,
2013-05-18 19:21:00,73.4,21.0,29.66,WSW,238,3.0,10.0,14,0.00,,,0.00,0,weatherlink.com 1.10,2013-05-19 02:21:00,
2013-05-18 19:36:00,72.4,20.0,29.67,SW,224,3.0,8.0,14,0.00,,,0.00,0,weatherlink.com 1.10,2013-05-19 02:36:00,
2013-05-18 19:51:00,71.4,20.0,29.67,SW,227,2.0,6.0,14,0.00,,,0.00,0,weatherlink.com 1.10,2013-05-19 02:51:00,
2013-05-18 20:06:00,70.3,20.0,29.67,SW,236,4.0,8.0,15,0.00,,,0.00,0,weatherlink.com 1.10,2013-05-19 03:06:00,
2013-05-18 20:21:00,69.7,20.0,29.67,WSW,246,3.0,7.0,15,0.00,,,0.00,0,weatherlink.com 1.10,2013-05-19 03:21:00,
2013-05-18 20:36:00,69.0,21.0,29.68,SW,218,0.0,5.0,16,0.00,,,0.00,0,weatherlink.com 1.10,2013-05-19 03:36:00,
2013-05-18 20:51:00,68.0,20.0,29.68,SW,219,2.0,3.0,16,0.00,,,0.00,0,weatherlink.com 1.10,2013-05-19 03:51:00,
2013-05-18 21:06:00,66.6,20.0,29.69,SW,219,0.0,2.0,17,0.00,,,0.00,0,weatherlink.com 1.10,2013-05-19 04:06:00,
2013-05-18 21:22:00,62.7,21.0,29.69,SSE,165,0.0,2.0,20,0.00,,,0.00,0,weatherlink.com 1.10,2013-05-19 04:22:00,
2013-05-18 21:36:00,61.6,21.0,29.70,SSE,165,0.0,2.0,21,0.00,,,0.00,0,weatherlink.com 1.10,2013-05-19 04:36:00,
2013-05-18 21:54:00,61.4,22.0,29.70,SSE,165,0.0,1.0,22,0.00,,,0.00,0,weatherlink.com 1.10,2013-05-19 04:54:00,
2013-05-18 22:06:00,61.0,22.0,29.71,SSE,165,1.0,1.0,22,0.00,,,0.00,0,weatherlink.com 1.10,2013-05-19 05:06:00,
2013-05-18 22:22:00,59.9,23.0,29.71,SSE,165,0.0,1.0,24,0.00,,,0.00,0,weatherlink.com 1.10,2013-05-19 05:22:00,
2013-05-18 22:36:00,59.8,25.0,29.70,West,266,0.0,2.0,26,0.00,,,0.00,0,weatherlink.com 1.10,2013-05-19 05:36:00,
2013-05-18 22:51:00,59.1,24.0,29.70,NNE,30,1.0,3.0,26,0.00,,,0.00,0,weatherlink.com 1.10,2013-05-19 05:51:00,
2013-05-18 23:06:00,57.7,25.0,29.70,NE,39,0.0,2.0,28,0.00,,,0.00,0,weatherlink.com 1.10,2013-05-19 06:06:00,
2013-05-18 23:21:00,57.8,28.0,29.71,NE,39,1.0,2.0,32,0.00,,,0.00,0,weatherlink.com 1.10,2013-05-19 06:21:00,
2013-05-18 23:36:00,58.5,29.0,29.71,NE,39,0.0,1.0,32,0.00,,,0.00,0,weatherlink.com 1.10,2013-05-19 06:36:00,
2013-05-18 23:51:00,58.2,28.0,29.71,NE,39,0.0,1.0,32,0.00,,,0.00,0,weatherlink.com 1.10,2013-05-19 06:51:00,